Location: Poughquag
(41.6090°N, 73.6820°W)
Time: 07:30:49
(UTC-04:00)

A-11 Canister half - Visible Passes

Search period start: 29 May 2020 00:00
Search period end: 08 June 2020 00:00
Orbit: 1515 x 1684 km, 47.2° (Epoch: 28 May)

Date Brightness Start Highest point End Pass type
(mag) Time Alt. Az. Time Alt. Az. Time Alt. Az.
29 May 9.5 20:58:13 10° WNW 21:07:01 51° SW 21:15:54 10° SSE visible
29 May 10.7 23:06:40 10° W 23:10:13 13° WSW 23:13:49 10° SW visible
30 May 9.5 20:35:17 10° WNW 20:44:10 54° SW 20:53:07 10° SE visible
30 May 10.7 22:43:08 10° W 22:47:26 14° WSW 22:51:46 10° SSW visible
31 May 10.7 22:19:45 10° W 22:24:38 16° SW 22:29:34 10° SSW visible
01 Jun 10.7 21:56:27 10° W 22:01:50 17° SW 22:07:16 10° SSW visible
02 Jun 10.7 21:33:13 10° W 21:39:03 19° SW 21:44:55 10° SSW visible
03 Jun 10.7 21:10:02 10° W 21:16:14 20° SW 21:22:30 10° S visible
04 Jun 10.6 20:46:54 10° W 20:53:27 22° SW 21:00:01 10° S visible
